Tracking 31027 objects as of 19-Jul-2025
HD Live streaming from Space Station
objects crossing your sky now

DMSP 5D-2 F14 DEB

Track DMSP 5D-2 F14 DEB now!
10-day predictions


NORAD ID: 62946
Int'l Code: 1997-012S
Perigee: 753.0 km
Apogee: 778.3 km
Inclination: 98.6 °
Period: 100.0 minutes
Semi major axis: 7136 km
RCS: Unknown
Launch date: April 4, 1997
Source: United States (US)
Launch site: AIR FORCE WESTERN TEST RANGE (AFWTR)

Note: This is SATELLITE DEBRIS
Your satellite tracking list
NUSAT-20 (GRACE)
Track 1 satellite(s)




NASA's NSSDC Master Catalog

Two Line Element Set (TLE):
1 62946U 97012S   25199.85296825  .00055520  00000-0  17464-1 0  9997
2 62946  98.5654 244.8248 0017717 178.5282 181.5961 14.40003882461343
Source of the keplerian elements: AFSPC